Simultaneous Nadir Overpasses (SNOs) Predictions

Prediction of SNOs between METOP-A and NOAA-19 Satellite Orbit:

Table of predicted SNOs for the next 14.0 days since TLE Epoch: 4/19/2015
Index Date (METOP-A) Time (METOP-A) Lat,Lon (METOP-A) SZA (METOP-A ) Date (NOAA-19) Time (NOAA-19) Lat,Lon (NOAA-19) SZA (NOAA-19 ) Distance(km) Time Diff (sec)
1 04/25/2015 04:13:29 74.92, 113.47 61.78 04/25/2015 04:12:15 74.92, 113.29 61.80 5.36 74
2 04/25/2015 05:04:12 -74.87, -79.35 118.28 04/25/2015 05:03:19 -74.86, -79.29 118.29 2.16 53
3 04/25/2015 05:54:52 74.85, 87.93 61.69 04/25/2015 05:54:16 74.84, 88.02 61.69 2.67 36
4 04/25/2015 06:45:34 -74.84,-104.75 118.33 04/25/2015 06:45:21 -74.82,-104.69 118.35 3.12 13
5 04/25/2015 07:36:14 74.82, 62.52 61.64 04/25/2015 07:36:18 74.80, 62.61 61.62 3.25 4
6 04/25/2015 08:26:56 -74.82,-130.16 118.38 04/25/2015 08:27:24 -74.83,-130.24 118.36 2.65 28
7 04/25/2015 09:17:36 74.80, 37.12 61.60 04/25/2015 09:18:21 74.82, 37.07 61.61 2.38 45
8 04/25/2015 10:08:18 -74.80,-155.56 118.42 04/25/2015 10:09:26 -74.80,-155.64 118.42 2.37 68
9 04/25/2015 10:59:07 74.34, 10.55 61.13 04/25/2015 11:00:15 74.40, 12.73 61.16 65.66 68




NCC Satellite Simultaneous Nadir Overpasses (SNOs) Prediction Service
